Location: Vinland
(47.7731°N, 122.6974°W)
Time: 22:46:57
(UTC+00:00)

S-56A Canister/Altair - Pass Details

Date: 29 March 2023
Orbit: 639 x 2492 km, 38.9° (Epoch: 01 June)

Event Time Altitude Azimuth Distance (km) Brightness Sun altitude
Rises 06:16:32 0° 273° (W) 5,526 12.4 -32.7°
Reaches altitude 10° 06:20:00 10° 269° (W) 4,713 11.9 -33.0°
Maximum altitude 06:33:04 50° 200° (SSW) 2,951 10.1 -34.2°
Enters shadow 06:34:19 49° 187° (S) 2,985 10.0 -34.3°
